Other Public Products
Issued by NWS Grand Forks, ND

Home | Current Version | Previous Version | Graphics & Text | Print | Product List | Glossary On
Versions: 1 2 3 4 5 6 7 8 9 10 11 12 13 14 15 16 17 18 19 20 21 22 23 24 25 26 27 28 29 30 31 32 33 34 35 36 37 38 39 40 41 42 43 44 45 46 47 48 49 50
875
FPUS83 KFGF 171731
OPUFGF
PRAIRIE TO PINES WEATHER ROUNDUP
NATIONAL WEATHER SERVICE EASTERN NORTH DAKOTA/GRAND FORKS ND
1100 AM CST TUE JAN 17 2017

 **SATELLITE DATA USED TO AUGMENT SKY COVER AT AUTOMATED STATIONS**
 *****  WEATHER ACROSS EASTERN NORTH DAKOTA  *****

CITY           SKY/WX    TMP DP  RH WIND       PRES   REMARKS
GRAND FORKS    FAIR      14   9  80 S9        29.91F WCI   2
GRAND FORKS AF FAIR      18  11  75 S9        29.89F WCI   6
GRAND CITY NWS NOT AVBL
BUXTON           N/A     13  10  87 S7          N/A  WCI   3
DEVILS LAKE    FAIR      20  16  84 S8        29.85F WCI  10
FARGO          FAIR      13   9  84 S10       29.98S WCI   0
WAHPETON ARPT  FAIR      12   9  85 SW3       30.01S
$$

 *****  WEATHER ACROSS CENTRAL AND WESTERN NORTH DAKOTA  *****

CITY           SKY/WX    TMP DP  RH WIND       PRES   REMARKS
JAMESTOWN      FAIR      20  15  81 SW6       29.91F WCI  12
BISMARCK       FAIR       9   5  84 CALM      29.92F
MINOT          FAIR      25  13  60 S20       29.76F WCI  11
MINOT AFB      FAIR      22  13  69 SW15      29.74F WCI   9
GARRISON         N/A     15  10  80 S8        29.82F WCI   4
WILLISTON      FAIR      20  11  68 SW12      29.78F WCI   8
DICKINSON      FAIR      26  13  57 SW16      29.81S WCI  14
HETTINGER      FAIR      18   7  62 W3        29.90S
$$

 *****  OTHER OBSERVATIONS NORTHEAST NORTH DAKOTA  *****

CITY           SKY/WX    TMP DP  RH WIND       PRES   REMARKS
WALHALLA       NOT AVBL
LANGDON        NOT AVBL
CAVALIER         N/A     23  16  74 S12       29.82F WCI  12
GRAFTON        FAIR      12  10  92 S10       29.90S WCI  -1
CANDO          NOT AVBL
FORT TOTTEN      N/A     22  17  83 SE7       29.95S WCI  13
ROLLA            N/A    N/A N/A N/A MISG        N/A
RUGBY            N/A     16  16 100 S14       29.79F WCI   1
 ***** THE ABOVE OBSERVATIONS ARE NON NWS ARE NOT QUALITY
        CONTROLLED AND MAY MIS-REPORT RAIN FOR SNOW...
$$

 *****  OTHER OBSERVATIONS SOUTHEAST NORTH DAKOTA *****

CITY           SKY/WX    TMP DP  RH WIND       PRES   REMARKS
COOPERSTOWN    FAIR      10   9  92 S5        29.90F WCI   2
VALLEY CITY    FAIR      14  10  85 S10       29.94F WCI   1
OAKES          NOT AVBL
GWINNER        FAIR      16  12  86 SW14      29.97F WCI   1
SHEYENNE NWR     N/A     15   8  75 SW7       29.95S WCI   5
BUFFALO          N/A     15  10  77 S6          N/A  WCI   7
WYNDMERE         N/A     18  12  79 W7          N/A  WCI   8
 ***** THE ABOVE OBSERVATIONS ARE NON NWS ARE NOT QUALITY
       CONTROLLED AND MAY MIS-REPORT RAIN FOR SNOW...
$$

  *****  WEATHER ACROSS NORTHERN MINNESOTA  *****

CITY           SKY/WX    TMP DP  RH WIND       PRES   REMARKS
FLAG ISLAND    FAIR       7   1  78 SE9       29.85F WCI  -7
WARROAD        FAIR      16  10  79 S3        29.86F
ROSEAU         FAIR      12   9  85 S8        29.87F WCI   1
HALLOCK        FAIR       9   5  85 S13       29.86F WCI  -7
THF RVR FALLS  FAIR      13   9  84 S12       29.91F WCI  -1
HALSTAD          N/A     10   7  89 S9          N/A  WCI  -4
FOSSTON        FAIR      12   9  85 S9        29.92F WCI   0
BAUDETTE       FAIR      12   7  80 SE7       29.88F WCI   1
WASKISH        FAIR      16  12  86 CALM      29.91F
CROOKSTON      FAIR       9   7  92 S10       29.94F WCI  -6
$$
  *****  WEATHER ACROSS CENTRAL AND WEST MINNESOTA  *****

CITY           SKY/WX    TMP DP  RH WIND       PRES   REMARKS
BEMIDJI        FAIR      16  13  88 CALM      29.92S
PARK RAPIDS    FAIR      11   6  81 SE3       29.93S HAZE
WADENA         FAIR      10   9  92 CALM      29.95S FOG
DETROIT LAKES  FAIR      18  14  86 S3        29.96S
MOORHEAD       FAIR       9   5  85 S10       29.98F WCI  -6
FERGUS FALLS   FAIR       9   5  85 S3        30.05S
ELBOW LAKE     FAIR      10   8  92 CALM      30.00R FOG
MORRIS MN      FAIR      16  12  86 CALM      30.00R
STAPLES        FAIR      12   9  85 CALM      29.96S FOG
WHEATON        FAIR      19  18  93 CALM      30.03S
$$
  *****  WEATHER ELSEWHERE ACROSS MINNESOTA  *****

CITY           SKY/WX    TMP DP  RH WIND       PRES   REMARKS
DULUTH         FOG       30  27  88 CALM      29.93S VSB 1/4
INTRNTL FALLS  FAIR      16  11  80 S5        29.91S WCI   9
ELY            FAIR      18  16  93 CALM      29.91F
CLOQUET        FOG       27  25  93 CALM      29.94S VSB<1/4
BRAINERD       FAIR      16  13  88 SW3       29.96S FOG
HIBBING        FAIR      12  10  92 CALM      29.92F FOG
ALEXANDRIA     FAIR      15  14  95 S3        29.97S
SAINT CLOUD    FOG       29  29 100 W6        29.98S VSB 1   WCI  23
MINNEAPOLIS    PTSUNNY   31  24  75 NW7       29.97F WCI  24
$$

  *****  WEATHER ACROSS SOUTH DAKOTA  *****

CITY           SKY/WX    TMP DP  RH WIND       PRES   REMARKS
SIOUX FALLS    FAIR      21  17  84 CALM      30.04S
BROOKINGS      FAIR      20  14  77 SW3       30.01R
WATERTOWN      FAIR       9   9 100 CALM      29.98S
HURON          FAIR      16  12  84 CALM      30.05R
SISSETON         N/A     16  10  77 CALM      29.99R
ABERDEEN       FAIR       9   3  77 S6        30.02R WCI  -1
MITCHELL       FAIR      21  16  81 W5        30.06S WCI  15
PIERRE         FAIR      16  10  77 SW7       30.00S WCI   6
MOBRIDGE       FAIR      12   6  77 SE5       29.96R WCI   4
RAPID CITY     FAIR      23  13  65 NW5       29.91S WCI  17
$$

  *****  SOME WEATHER IN NEARBY STATES *****

CITY           SKY/WX    TMP DP  RH WIND       PRES   REMARKS
GLASGOW MT     FAIR      19  13  77 SE9       29.72F WCI   8
GREAT FALLS MT FAIR      37  17  44 SW35      29.84S
CHEYENNE WY    FAIR      37  19  48 SW7       30.03S
SCOTTSBLUFF NE FAIR      27  16  63 NW3       30.04F
OMAHA NE       CLOUDY    28  23  81 NW8       30.11R WCI  20
DES MOINES IA  DRIZZLE   35  33  92 NW16      30.03R FOG
DAVENPORT IA   CLOUDY    35  34  96 W13       29.93S
CHICAGO IL     CLOUDY    38  36  92 W12       29.85F
EAU CLAIRE WI  CLOUDY    35  33  92 N3        29.91S
LA CROSSE WI   LGT RAIN  36  34  92 NW6       29.90F FOG
$$

  *****  SOME NATIONAL WEATHER *****

CITY           SKY/WX    TMP DP  RH WIND       PRES   REMARKS
LA GUARDIA NY  LGT RAIN  41  35  79 E6        30.18F
RALEIGH NC     CLOUDY    56  51  84 SW13      30.22F
ATLANTA GA     PTSUNNY   71  55  56 SW13      30.21F
NEW ORLEANS LA CLOUDY    73  69  87 S10       30.16S
OKLAHOMA CITY  FAIR      46  34  62 N9        30.20R
ALBUQUERQUE NM FAIR      42  37  82 NW6       30.17R
SALT LAKE CITY FAIR      24  19  81 CALM      30.32R
LOS ANGELES CA FAIR      55  42  61 E7        30.12S
BOISE ID       FAIR       5   1  83 NW6       30.35S FOG     WCI  -6
SEATTLE WA     MOCLDY    40  39  97 S6        29.75F
$$

*** WEATHER ACROSS MANITOBA...SASKATCHEWAN AND ONTARIO ***
                ***ONTARIO***

CITY           SKY/WX    TMP DP  RH WIND       PRES   REMARKS
GERALDTON      CLOUDY    25  25 100 S6        29.90F WCI  18
THUNDER BAY    CLOUDY    28  27  93 SW3       29.95F FOG
SIOUX LOOKOUT  PTSUNNY   16  12  86 S6        29.84F WCI   7
TORONTO        RAIN      34  32  93 E17G25    29.87F FOG     WCI  23
BIG TROUT LK   CLOUDY    23  18  80 SW9       29.64F WCI  13
PICKLE LAKE    PTSUNNY   16  14  93 S9        29.80F WCI   4
DRYDEN         SUNNY     18  16  93 S9        29.84F WCI   6
KENORA         PTSUNNY   12   9  85 S12       29.82F WCI  -2
$$
                *** MANITOBA***

CITY           SKY/WX    TMP DP  RH WIND       PRES   REMARKS
BRANDON        CLOUDY    19  12  73 SW15      29.70F WCI   5
DAUPHIN        SUNNY     30  19  64 W12G18    29.54F WCI  21
ISLAND LAKE    PTSUNNY   30  21  69 S9G18     29.51F WCI  22
PILOT MOUND      N/A     14  10  85 S12         N/A  WCI   0
THE PAS        PTSUNNY   32  19  59 SW12G18   29.33F WCI  23
THOMPSON       CLOUDY    30  23  74 S10G22    29.23F WCI  21
WINNIPEG       PTSUNNY   14  10  85 S15       29.78F WCI  -1
LYNN LAKE      MOCLDY    28  25  86 SW10      29.09F WCI  19
CHURCHILL      CLOUDY    27  23  86 SW13      29.12F WCI  16
GILLAM         CLOUDY    34  25  69 SW15G23   29.26F WCI  24
$$
                ***SASKATCHEWAN***

CITY           SKY/WX    TMP DP  RH WIND       PRES   REMARKS
ESTEVAN        PTSUNNY   21  14  73 SW26      29.65F WCI   4
KINDERSLEY     PTSUNNY   37  30  75 VRB2      29.51R
LLOYDMINSTER   MOCLDY    39  30  70 SW10      29.38R
PRINCE ALBERT  PTSUNNY   28  21  74 S5        29.39R WCI  23
REGINA         PTSUNNY   32  23  69 SW8       29.55S WCI  25
YORKTON        SUNNY     25  16  68 S8        29.51S WC1F1C2F2C3F3C4F4C5F5C6F6C7F7C8F8C9F9CaFaCbFbCcFcCdFdCe!



USA.gov is the U.S. government's official web portal to all federal, state and local government web resources and services.